Mercury, NV

10:22 AM PDT on October 20, 2019 (GMT -0700)
Mercury

Weather History for KDRA - September, 2019

Change the Weather History Date:

Monday, September 16, 2019

  Actual Average Record
Temperature  
Mean Temperature 82 °F 75 °F  
Max Temperature 91 °F 90 °F 102 °F (2000)
Min Temperature 72 °F 61 °F 50 °F (1986)
Degree Days  
Heating Degree Days 0    
Cooling Degree Days 16    
Growing Degree Days 32 (Base 50)    
Moisture  
Dew Point 27 °F    
Average Humidity 15    
Maximum Humidity 23    
Minimum Humidity 8    
Precipitation  
Precipitation T in 0.02 in 0.07 in (1989)
Month to date precipitation 0.02 0.31  
Year to date precipitation 5.24 4.28  
Sea Level Pressure  
Sea Level Pressure 29.70 in    
Wind  
Wind Speed 16 mph ()    
Max Wind Speed 36 mph    
Max Gust Speed 52 mph    
Visibility 9.7 miles    
Events Rain    
T = Trace of Precipitation, MM = Missing Value Source: Averaged Metar Reports

Daily Weather History Graph

Daily Weather History Graph

Search for Another Location

Airport or City:

Astronomy

Sep. 16, 2019 Rise Set
Actual Time 6:27 AM PDT 6:50 PM PDT
Civil Twilight 6:01 AM PDT 7:16 PM PDT
Nautical Twilight 5:30 AM PDT 7:46 PM PDT
Astronomical Twilight 4:59 AM PDT 8:17 PM PDT
Moon 8:30 PM PDT (9/16) 8:35 AM PDT (9/16)
Length of Visible Light 13h 14m
Length of Day
12h 23m
Waning Gibbous, 94% of the Moon is Illuminated
Sep 16
Waning Gibbous
Sep 21
Last Quarter
Sep 28
New
Oct 5
First Quarter
Oct 13
Full

Hourly Weather History & Observations

Time (PDT) Temp. Dew Point Humidity Pressure Visibility Wind Dir Wind Speed Gust Speed Precip Events Conditions
12:53 AM 80.1 °F 30.0 °F 16% 29.71 in 10.0 mi South 17.3 mph 25.3 mph N/A   Clear
1:53 AM 80.1 °F 30.0 °F 16% 29.71 in 10.0 mi South 11.5 mph - N/A   Clear
2:53 AM 80.1 °F 28.0 °F 15% 29.69 in 10.0 mi South 17.3 mph 28.8 mph N/A   Clear
3:53 AM 78.1 °F 28.9 °F 17% 29.70 in 10.0 mi Variable 5.8 mph 19.6 mph N/A   Clear
4:53 AM 77.0 °F 30.0 °F 18% 29.71 in 10.0 mi South 23.0 mph 27.6 mph N/A   Clear
5:53 AM 77.0 °F 25.0 °F 15% 29.71 in 10.0 mi SSW 11.5 mph 21.9 mph N/A   Clear
6:53 AM 75.0 °F 26.1 °F 16% 29.74 in 10.0 mi SW 15.0 mph 28.8 mph N/A   Clear
7:53 AM 78.1 °F 28.0 °F 16% 29.75 in 10.0 mi South 17.3 mph 29.9 mph N/A   Clear
8:53 AM 82.0 °F 25.0 °F 12% 29.76 in 10.0 mi SSW 12.7 mph 27.6 mph N/A   Clear
9:53 AM 84.0 °F 25.0 °F 12% 29.76 in 10.0 mi South 15.0 mph 32.2 mph N/A   Clear
10:53 AM 86.0 °F 21.9 °F 10% 29.75 in 10.0 mi SSW 19.6 mph 26.5 mph N/A   Clear
11:53 AM 87.1 °F 19.9 °F 8% 29.73 in 10.0 mi South 23.0 mph 34.5 mph N/A   Scattered Clouds
12:53 PM 90.0 °F 19.9 °F 8% 29.70 in 10.0 mi SSW 28.8 mph 48.3 mph N/A   Clear
1:53 PM 87.1 °F 21.0 °F 9% 29.69 in 10.0 mi SSW 27.6 mph 36.8 mph N/A   Clear
2:53 PM 86.0 °F 21.9 °F 10% 29.67 in 10.0 mi SSW 21.9 mph 35.7 mph N/A   Clear
3:27 PM 84.9 °F 27.0 °F 12% 29.83 in 2.5 mi SW 31.1 mph 40.3 mph N/A   Haze
3:36 PM 80.1 °F 35.1 °F 20% 29.84 in 10.0 mi SSW 21.9 mph 42.6 mph 0.00 in Rain Light Rain
3:53 PM 79.0 °F 37.9 °F 23% 29.68 in 10.0 mi SSW 16.1 mph 36.8 mph 0.00 in Rain Light Rain
4:53 PM 82.9 °F 28.0 °F 14% 29.64 in 10.0 mi SSW 26.5 mph 38.0 mph 0.00 in   Clear
5:53 PM 82.9 °F 25.0 °F 12% 29.63 in 10.0 mi SSW 26.5 mph 43.7 mph N/A   Clear
6:53 PM 81.0 °F 21.0 °F 11% 29.64 in 10.0 mi SSW 17.3 mph 34.5 mph N/A   Clear
7:53 PM 80.1 °F 23.0 °F 12% 29.62 in 10.0 mi SSW 25.3 mph 35.7 mph N/A   Clear
8:53 PM 78.1 °F 28.0 °F 16% 29.64 in 10.0 mi SSW 17.3 mph 31.1 mph N/A   Clear
9:53 PM 77.0 °F 30.0 °F 18% 29.64 in 10.0 mi SSW 27.6 mph 43.7 mph N/A   Clear
10:53 PM 75.0 °F 33.1 °F 22% 29.64 in 10.0 mi SW 29.9 mph 40.3 mph N/A   Clear
11:53 PM 73.0 °F 32.0 °F 22% 29.68 in 10.0 mi SSW 13.8 mph 29.9 mph N/A   Clear